date,batt_volt,AirTemp_C,Solar_kW,RH,Manual_BP,StationID,WS_ms,PTemp,WS_15min_max,Prog_Sig,Solar_Raw,Bar_mbar,Solar_MJ,Max_WS_2min,Pressure_Raw,Rain_mm,WD_15min_ave,Max_AirTemp_1min,WindDir,WS_15min_med,WS_15min_ave,Elevation_Correction
2017-04-01T00:03:15Z,13.29153,-1.12553,0.0,71.16809,0,1156,1.6072,1.201698,,43690,0.0,1019.535,0.0,3.018,1017.734,0,,-1.092,82.58585,,,1.80078
2017-04-01T00:18:21Z,13.28973,-1.424503,0.0,72.16366,0,1156,1.3916,0.9260674,,43690,0.0,1019.535,0.0,1.94,1017.734,0,,-1.289,111.2888,,,1.80078
2017-04-01T00:33:21Z,13.28491,-1.622292,0.0,72.75138,0,1156,2.94,0.7340317,,43690,0.0,1019.535,0.0,3.293,1017.734,0,,-1.622,51.5571,,,1.80078
2017-04-01T00:48:21Z,13.28498,-1.757729,-0.000482679,72.75194,0,1156,1.2936,0.6075134,,43690,0.0,1019.535,-2.413395e-06,3.606,1017.734,0,,-1.792,89.3824,,,1.80078
2017-04-01T01:03:17Z,13.29051,-1.927391,-0.000482712,72.88766,0,1156,1.47,0.4358101,,43690,0.0,1020.199,-2.41356e-06,3.352,1018.398,0,,-1.792,51.75024,,,1.80078
2017-04-01T01:18:18Z,13.30156,-2.063126,0.0,73.32879,0,1156,3.2536,0.2460327,,43690,0.0,1020.199,0.0,3.998,1018.398,0,,-1.995,65.001,,,1.80078
2017-04-01T01:33:18Z,13.30709,-2.368519,0.0,74.00745,0,1156,2.0972,0.09692383,,43690,0.0,1020.199,0.0,3.9,1018.398,0,,-2.301,69.6749,,,1.80078
2017-04-01T01:48:22Z,13.32367,-2.50425,-0.0004827456,74.9915,0,1156,2.3912,-0.1177063,,43690,0.0,1020.199,-2.413728e-06,2.744,1018.398,0,,-2.47,73.26466,,,1.80078
2017-04-01T02:03:23Z,13.33472,-2.673916,-0.0004827456,76.38274,0,1156,2.9792,-0.3504066,,43690,0.0,1020.199,-2.413728e-06,4.018,1018.398,0,,-2.538,96.15233,,,1.80078
2017-04-01T02:18:23Z,13.35166,-2.807648,-0.0004827456,77.54062,0,1156,2.0776,-0.5853691,,43690,0.0,1020.199,-2.413728e-06,3.469,1018.398,0,,-2.741,66.57057,,,1.80078
2017-04-01T02:33:22Z,13.34169,-2.90559,0.0,78.36322,0,1156,1.862,-0.7344818,,43690,0.0,1020.199,0.0,1.509,1018.398,0,,-2.906,125.2033,,,1.80078
2017-04-01T02:48:21Z,13.34249,-2.905174,0.0,78.60166,0,1156,0.8231999,-0.8203316,,43690,0.0,1020.199,0.0,1.294,1018.398,0,,-2.837,31.20479,,,1.80078
2017-04-01T03:03:25Z,13.35357,-2.633636,0.0,78.46598,0,1156,0.392,-0.8203316,,43690,0.0,1020.45,0.0,1.588,1018.649,0,,-2.566,126.0723,,,1.80078
2017-04-01T03:18:24Z,13.35357,-2.667896,0.0,78.60105,0,1156,0.2744,-0.6486282,,43690,0.0,1020.45,0.0,0.49,1018.649,0,,-2.532,84.4089,,,1.80078
2017-04-01T03:33:23Z,13.34186,-2.566589,0.0,78.63392,0,1156,1.47,-0.4159279,,43690,0.0,1020.45,0.0,1.627,1018.649,0,,-2.43,92.1907,,,1.80078
2017-04-01T03:48:23Z,13.33476,-2.436245,0.0,78.86013,0,1156,0.3528,-0.2012978,,43690,0.0,1020.45,0.0,1.294,1018.649,0,,-2.368,92.37018,,,1.80078
2017-04-01T04:03:26Z,13.32368,-2.402424,0.0,78.89383,0,1156,1.568,-0.01152039,,43690,0.0,1020.444,0.0,1.686,1018.643,0,,-2.368,33.63286,,,1.80078
2017-04-01T04:18:25Z,13.32368,-2.504223,0.0,79.33496,0,1156,1.1368,0.01107025,,43690,0.0,1020.444,0.0,1.803,1018.643,0,,-2.402,61.3872,,,1.80078
2017-04-01T04:33:29Z,13.33473,-2.639954,0.0,79.97968,0,1156,1.862,-0.1809654,,43690,0.0,1020.444,0.0,2.038,1018.643,0,,-2.606,66.88025,,,1.80078
2017-04-01T04:48:28Z,13.35131,-2.911415,0.0,80.76014,0,1156,2.7244,-0.4362602,,43690,0.0,1020.444,0.0,3.254,1018.643,0,,-2.776,72.20465,,,1.80078
2017-04-01T05:03:27Z,13.35803,-2.976322,0.0,81.4453,0,1156,1.6856,-0.6712227,,43690,0.0,1019.894,0.0,2.332,1018.094,0,,-2.875,87.51026,,,1.80078
2017-04-01T05:18:26Z,13.35906,-3.142799,0.0,81.79176,0,1156,2.1756,-0.9265175,,43690,0.0,1019.894,0.0,2.038,1018.094,0,,-3.075,59.08419,,,1.80078
2017-04-01T05:33:30Z,13.3818,-3.448162,0.0,82.5386,0,1156,0.9408,-1.245071,,43690,0.0,1019.894,0.0,1.862,1018.094,0,,-3.312,69.68674,,,1.80078
2017-04-01T05:48:29Z,13.38854,-3.714405,0.0004828252,83.16156,0,1156,0.8428,-1.565884,,43690,0.03379776,1019.894,2.414126e-06,0.8430001,1018.094,0,,-3.545,73.74563,,,1.80078
2017-04-01T06:03:28Z,13.38899,-4.290588,-0.0004828315,84.6571,0,1156,0.9799999,-1.864105,,43690,0.0,1019.967,-2.414157e-06,1.235,1018.166,0,,-4.189,104.6924,,,1.80078
2017-04-01T06:18:32Z,13.40005,-4.49424,0.0,85.53969,0,1156,1.8228,-2.184921,,43690,0.0,1019.967,0.0,2.254,1018.166,0,,-4.392,58.03392,,,1.80078
2017-04-01T06:33:30Z,13.41664,-3.883244,0.0004829088,85.03053,0,1156,1.96,-2.442474,,43690,0.03380362,1019.967,2.414544e-06,3.214,1018.166,0,,-3.849,78.68802,,,1.80078
2017-04-01T06:48:34Z,13.41664,-3.883244,0.0,84.41953,0,1156,2.254,-2.505733,,43690,0.0,1019.967,0.0,3.038,1018.166,0,,-3.815,76.8805,,,1.80078
2017-04-01T07:03:33Z,13.40558,-3.815353,0.0,83.91036,0,1156,2.6264,-2.442474,,43690,0.0,1019.316,0.0,3.293,1017.515,0,,-3.68,75.77187,,,1.80078
2017-04-01T07:18:31Z,13.39453,-3.8493,0.0,83.50303,0,1156,2.3128,-2.33403,,43690,0.0,1019.316,0.0,3.802,1017.515,0,,-3.68,90.69006,,,1.80078
2017-04-01T07:33:35Z,13.39453,-3.815353,0.0,83.16358,0,1156,1.9796,-2.184921,,43690,0.0,1019.316,0.0,4.41,1017.515,0,,-3.68,50.29768,,,1.80078
2017-04-01T07:48:32Z,13.389,-3.78141,0.0,82.55259,0,1156,3.4692,-2.035809,,43690,0.0,1019.316,0.0,4.292,1017.515,0,,-3.68,63.43243,,,1.80078
2017-04-01T08:03:34Z,13.37794,-3.78141,0.0,82.07736,0,1156,2.8616,-1.8867,,43690,0.0,1019.234,0.0,4.057,1017.434,0,,-3.714,58.94974,,,1.80078
2017-04-01T08:18:36Z,13.38347,-3.815353,-0.000482898,81.70398,0,1156,3.0184,-1.821182,,43690,0.0,1019.234,-2.41449e-06,3.528,1017.434,0,,-3.68,62.63712,,,1.80078
2017-04-01T08:33:33Z,13.38347,-3.747467,0.0,81.05904,0,1156,3.6848,-1.800846,,43690,0.0,1019.234,0.0,4.214,1017.434,0,,-3.646,67.1921,,,1.80078
2017-04-01T08:48:35Z,13.37794,-3.61169,0.0,80.51593,0,1156,2.8028,-1.714996,,43690,0.0,1019.234,0.0,3.724,1017.434,0,,-3.578,103.1741,,,1.80078
2017-04-01T09:03:37Z,13.37241,-3.5438,0.0,79.36182,0,1156,3.5672,-1.651737,,43690,0.0,1019.153,0.0,3.606,1017.352,0,,-3.476,68.78274,,,1.80078
2017-04-01T09:18:34Z,13.36136,-3.47591,0.0,78.07194,0,1156,2.2148,-1.543293,,43690,0.0,1019.153,0.0,3.293,1017.352,0,,-3.374,75.16936,,,1.80078
2017-04-01T09:33:37Z,13.37241,-3.374081,0.0004828274,77.46094,0,1156,1.8816,-1.500366,,43690,0.03379792,1019.153,2.414137e-06,2.47,1017.352,0,,-3.34,67.50541,,,1.80078
2017-04-01T09:48:39Z,13.38347,-3.441967,0.003379792,77.39305,0,1156,0.8231999,-1.522961,,43690,0.2365854,1019.153,1.689896e-05,2.078,1017.352,0,,-3.408,92.6422,,,1.80078
2017-04-01T10:03:36Z,13.37794,-3.30619,0.006759584,77.1215,0,1156,0.9799999,-1.522961,,43690,0.4731709,1019.886,3.379792e-05,1.529,1018.085,0,,-3.272,109.4643,,,1.80078
2017-04-01T10:18:39Z,13.38347,-3.441967,0.01738179,77.25727,0,1156,1.6268,-1.480034,,43690,1.216725,1019.886,8.690894e-05,1.921,1018.085,0,,-3.306,55.72028,,,1.80078
2017-04-01T10:33:36Z,13.37787,-3.374336,0.03186661,77.49434,0,1156,1.8424,-1.394184,,43690,2.230663,1019.886,0.0001593331,2.117,1018.085,0,,-3.273,76.01234,,,1.80078
2017-04-01T10:48:41Z,13.35478,-3.10463,0.05117971,76.77767,0,1156,2.5872,-1.159222,,43690,3.58258,1019.886,0.0002558985,2.568,1018.085,0,,-3.104,40.82386,,,1.80078
2017-04-01T11:03:40Z,13.34258,-2.972633,0.06372376,74.86927,0,1156,2.8616,-0.8835907,,43690,4.460663,1019.812,0.0003186188,2.842,1018.011,0,,-2.871,15.39775,,,1.80078
2017-04-01T11:18:40Z,13.34252,-2.871819,0.09848018,74.32424,0,1156,2.8028,-0.5853691,,43690,6.893613,1019.812,0.0004924009,3.842,1018.011,0,,-2.735,44.93902,,,1.80078
2017-04-01T11:33:39Z,13.32443,-2.570812,0.11779,73.77248,0,1156,2.7244,-0.2238922,,43690,8.2453,1019.812,0.00058895,3.763,1018.011,0,,-2.604,66.40066,,,1.80078
2017-04-01T11:48:38Z,13.31264,-2.300598,0.1564097,71.1572,0,1156,2.9596,0.2031097,,43690,10.94868,1019.812,0.0007820483,2.862,1018.011,0,,-2.199,50.06385,,,1.80078
2017-04-01T12:03:43Z,13.29052,-1.723766,0.2153047,67.7978,0,1156,2.0384,0.7566262,,43690,15.07133,1019.792,0.001076523,2.607,1017.991,0,,-1.656,66.63933,,,1.80078
2017-04-01T12:18:42Z,13.26841,-1.215965,0.2519534,64.60612,0,1156,1.8032,1.330475,,43690,17.63674,1019.792,0.001259767,2.783,1017.991,0,,-1.283,108.6048,,,1.80078
2017-04-01T12:33:42Z,13.24225,-0.684475,0.2953906,64.316,0,1156,3.822,1.990173,,43690,20.67734,1019.792,0.001476953,3.195,1017.991,0,,-0.583,80.29798,,,1.80078
2017-04-01T12:48:42Z,13.2363,-0.210289,0.4044481,59.8033,0,1156,3.6456,2.652134,,43690,28.31137,1019.792,0.002022241,3.391,1017.991,0,,-0.109,96.81824,,,1.80078
2017-04-01T13:03:41Z,13.21419,0.4002838,0.4627457,57.86976,0,1156,2.7636,3.442875,,43690,32.3922,1019.861,0.002313728,4.469,1018.06,0,,0.434,111.2687,,,1.80078
2017-04-01T13:18:45Z,13.19423,0.3910942,0.5225494,57.3818,0,1156,2.3128,4.29913,,43690,36.57846,1019.861,0.002612747,3.371,1018.06,0,,0.426,143.1235,,,1.80078
2017-04-01T13:33:45Z,13.16556,1.030991,0.5620305,58.66414,0,1156,2.1364,5.159904,,43690,39.34214,1019.861,0.002810152,2.96,1018.06,0,,0.9630001,111.9776,,,1.80078
2017-04-01T13:48:43Z,13.14896,0.7256813,0.5416815,60.4951,0,1156,2.5088,5.982273,,43690,37.9177,1019.861,0.002708408,4.488,1018.06,0,,0.7600001,121.4151,,,1.80078
2017-04-01T14:03:46Z,13.1338,0.8146095,0.5667479,61.7304,0,1156,1.4308,6.43864,,43690,39.67235,1018.728,0.002833739,4.606,1016.927,0,,0.9170001,80.86986,,,1.80078
2017-04-01T14:18:43Z,13.12243,1.254273,0.4794444,60.67802,0,1156,2.646,6.743641,,43690,33.5611,1018.728,0.002397222,4.508,1016.927,0,,1.153,141.8317,,,1.80078
2017-04-01T14:33:46Z,13.11691,1.118664,0.5320012,59.01698,0,1156,3.528,6.940197,,43690,37.24008,1018.728,0.002660006,5.018,1016.927,0,,1.186,137.7641,,,1.80078
2017-04-01T14:48:44Z,13.11138,1.796627,0.735042,57.08477,0,1156,2.1756,7.179676,,43690,51.45294,1018.728,0.00367521,3.567,1016.927,0,,1.831,103.2268,,,1.80078
2017-04-01T15:03:47Z,13.09482,1.796627,0.801037,57.89833,0,1156,3.6456,7.64056,,43690,56.07259,1018.452,0.004005185,3.371,1016.651,0,,2.068,69.91697,,,1.80078
2017-04-01T15:18:50Z,13.07826,1.661034,0.7845443,60.23732,0,1156,4.0376,8.169224,,43690,54.91811,1018.452,0.003922722,4.567,1016.651,0,,1.424,102.3844,,,1.80078
2017-04-01T15:33:49Z,13.0653,1.82618,0.8992586,58.46852,0,1156,3.0576,8.52393,,43690,62.9481,1018.452,0.004496293,4.077,1016.651,0,,2.064,99.94321,,,1.80078
2017-04-01T15:48:48Z,13.0425,3.009365,0.9575683,57.21025,0,1156,2.94,9.145222,,43690,67.02978,1018.452,0.004787842,3.881,1016.651,0,,3.043,105.1096,,,1.80078
2017-04-01T16:03:47Z,13.02973,2.52816,0.7969164,56.52348,0,1156,1.9992,9.728107,,43690,55.78414,1017.632,0.003984582,3.43,1015.831,0,,2.833,80.35958,,,1.80078
2017-04-01T16:18:47Z,13.0352,2.460201,0.5635688,54.52391,0,1156,2.5284,9.816219,,43690,39.44982,1017.632,0.002817844,3.959,1015.831,0,,2.494,96.79196,,,1.80078
2017-04-01T16:33:52Z,13.04624,2.222992,0.5462472,57.6415,0,1156,3.3712,9.547367,,43690,38.2373,1017.632,0.002731236,3.802,1015.831,0,,2.291,93.11084,,,1.80078
2017-04-01T16:48:49Z,13.04624,2.256878,0.5587677,57.6415,0,1156,1.6072,9.278515,,43690,39.11374,1017.632,0.002793839,3.92,1015.831,0,,2.46,103.3121,,,1.80078
2017-04-01T17:03:52Z,13.05175,2.765182,0.5519982,56.25214,0,1156,3.1752,9.278515,,43690,38.63987,1016.976,0.002759991,3.312,1015.175,0,,2.765,95.49274,,,1.80078
2017-04-01T17:18:50Z,13.05175,2.290764,0.4517222,59.81026,0,1156,4.0572,9.145222,,43690,31.62055,1016.976,0.002258611,5.018,1015.175,0,,2.528,99.02951,,,1.80078
2017-04-01T17:33:53Z,13.05211,2.359596,0.5385383,60.55728,0,1156,2.8616,8.944149,,43690,37.69768,1016.976,0.002692691,3.665,1015.175,0,,2.394,108.8005,,,1.80078
2017-04-01T17:48:53Z,13.05256,2.5653,0.5376115,57.34115,0,1156,2.0776,9.011929,,43690,37.6328,1016.976,0.002688057,4.116,1015.175,0,,2.634,93.4071,,,1.80078
2017-04-01T18:03:50Z,13.04638,2.935371,0.5375869,56.11758,0,1156,2.2736,9.278515,,43690,37.63108,1015.848,0.002687934,3.371,1014.048,0,,2.936,97.39518,,,1.80078
2017-04-01T18:18:54Z,13.04072,3.578541,0.5269312,52.25358,0,1156,2.5872,9.682926,,43690,36.88518,1015.848,0.002634656,3.077,1014.048,0,,4.087,82.09166,,,1.80078
2017-04-01T18:33:52Z,13.02968,3.442917,0.5317674,53.67674,0,1156,4.508,10.10992,,43690,37.22372,1015.848,0.002658837,3.41,1014.048,0,,3.714,109.327,,,1.80078
2017-04-01T18:48:53Z,13.0352,3.544578,0.5384995,57.60761,0,1156,0.882,10.26807,,43690,37.69497,1015.848,0.002692498,3.979,1014.048,0,,3.578,94.12134,,,1.80078
2017-04-01T19:03:53Z,13.02968,3.61235,0.4845024,55.16776,0,1156,2.8616,10.29066,,43690,33.91516,1016.081,0.002422512,3.332,1014.28,0,,3.782,135.2393,,,1.80078
2017-04-01T19:18:54Z,13.02968,3.543835,0.4199038,58.01327,0,1156,0.7644,10.26807,,43690,29.39327,1016.081,0.002099519,4.332,1014.28,0,,3.578,35.55956,,,1.80078
2017-04-01T19:33:54Z,13.04624,3.476715,0.3196283,60.149,0,1156,2.8812,10.08733,,43690,22.37398,1016.081,0.001598141,4.116,1014.28,0,,3.544,86.99952,,,1.80078
2017-04-01T19:48:54Z,13.05175,3.30735,0.2444216,64.96103,0,1156,3.5672,9.569958,,43690,17.10951,1016.081,0.001222108,2.862,1014.28,0,,3.409,98.25956,,,1.80078
2017-04-01T20:03:54Z,13.06831,2.866821,0.1981419,68.58691,0,1156,1.9404,9.034519,,43690,13.86993,1015.43,0.0009907095,4.077,1013.629,0,,3.002,74.63299,,,1.80078
2017-04-01T20:18:59Z,13.08671,2.838631,0.1730985,67.40983,0,1156,5.6448,8.45615,,43690,12.1169,1015.43,0.0008654924,5.625,1013.629,0,,2.873,113.4803,,,1.80078
2017-04-01T20:33:59Z,13.1053,2.912651,0.14851,68.94497,0,1156,3.9592,7.927486,,43690,10.3957,1015.43,0.0007425498,4.371,1013.629,0,,2.98,81.58488,,,1.80078
2017-04-01T20:48:59Z,13.11134,2.915192,0.1258659,68.33888,0,1156,2.1364,7.486934,,43690,8.810614,1015.43,0.0006293296,3.861,1013.629,0,,2.949,77.93141,,,1.80078
2017-04-01T21:03:58Z,13.10586,3.559322,0.1075432,55.28814,0,1156,4.1944,7.290378,,43690,7.528024,1015.197,0.000537716,6.252,1013.397,0,,3.729,74.46577,,,1.80078
2017-04-01T21:18:58Z,13.10586,3.355934,0.08873523,56.64407,0,1156,2.842,7.179676,,43690,6.211466,1015.197,0.0004436762,6.35,1013.397,0,,3.458,82.26374,,,1.80078
2017-04-01T21:33:58Z,13.1169,2.881355,0.0641467,57.59322,0,1156,5.978,7.00571,,43690,4.490269,1015.197,0.0003207335,6.115,1013.397,0,,3.085,65.51254,,,1.80078
2017-04-01T21:49:03Z,13.13346,2.576271,0.0419614,60.0,0,1156,3.3908,6.655529,,43690,2.937298,1015.197,0.000209807,5.233,1013.397,0,,2.712,85.70542,,,1.80078
2017-04-01T22:04:02Z,13.15002,2.305084,0.02556389,59.11864,0,1156,3.332,6.287274,,43690,1.789472,1014.628,0.0001278195,4.43,1012.827,0,,2.407,86.74034,,,1.80078
2017-04-01T22:19:01Z,13.16107,2.135593,0.01398781,60.47458,0,1156,2.842,5.939342,,43690,0.9791464,1014.628,6.993903e-05,4.116,1012.827,0,,2.237,72.63661,,,1.80078
2017-04-01T22:34:00Z,13.17383,1.970894,0.004341044,61.90537,0,1156,2.0776,5.636604,,43690,0.303873,1014.628,2.170522e-05,2.548,1012.827,0,,2.072,111.6873,,,1.80078
2017-04-01T22:49:05Z,13.19304,1.776436,0.0009646762,63.07156,0,1156,2.2344,5.311276,,43690,0.06752734,1014.628,4.823382e-06,2.45,1012.827,0,,1.946,101.9365,,,1.80078
2017-04-01T23:04:04Z,13.18209,1.675133,0.0,63.78432,0,1156,1.6464,5.116978,,43690,0.0,1015.127,0.0,3.293,1013.326,0,,1.743,89.65884,,,1.80078
2017-04-01T23:19:04Z,13.18209,1.607319,0.0,64.36079,0,1156,1.9208,4.945274,,43690,0.0,1015.127,0.0,2.803,1013.326,0,,1.607,117.4184,,,1.80078
2017-04-01T23:34:02Z,13.19314,1.437767,0.0,63.81823,0,1156,1.5876,4.771313,,43690,0.0,1015.127,0.0,2.332,1013.326,0,,1.472,82.96574,,,1.80078
2017-04-01T23:49:06Z,13.19314,1.268219,0.0,66.22583,0,1156,1.0584,4.622204,,43690,0.0,1015.127,0.0,2.078,1013.326,0,,1.302,49.74092,,,1.80078
2017-04-02T00:04:05Z,13.19314,0.9969406,0.0,66.63274,0,1156,3.1948,4.493424,,43690,0.0,1014.802,0.0,3.332,1013.001,0,,1.133,82.96574,,,1.80078
2017-04-02T00:19:05Z,13.19314,0.929123,0.0,66.36146,0,1156,2.3716,4.384979,,43690,0.0,1014.802,0.0,3.469,1013.001,0,,0.9630001,76.56153,,,1.80078
2017-04-02T00:34:04Z,13.20971,0.6578446,0.0,66.90402,0,1156,2.744,4.15002,,43690,0.0,1014.802,0.0,4.606,1013.001,0,,0.7930001,74.68361,,,1.80078
2017-04-02T00:49:03Z,13.20418,0.4882927,0.0,67.14139,0,1156,3.5672,3.99865,,43690,0.0,1014.802,0.0,4.234,1013.001,0,,0.658,89.82738,,,1.80078
2017-04-02T01:04:08Z,13.20971,0.420475,0.0,68.97252,0,1156,2.6656,3.849537,,43690,0.0,1014.232,0.0,4.39,1012.431,0,,0.488,63.80128,,,1.80078
2017-04-02T01:19:07Z,13.21572,0.253212,0.0,70.67202,0,1156,2.5872,3.72076,,43690,0.0,1014.232,0.0,4.018,1012.431,0,,0.321,88.60454,,,1.80078
2017-04-02T01:34:06Z,13.21609,0.1209793,0.0,71.79722,0,1156,2.0776,3.591984,,43690,0.0,1014.232,0.0,3.469,1012.431,0,,0.223,68.60212,,,1.80078
2017-04-02T01:49:06Z,13.22918,0.1234627,0.0,72.58175,0,1156,2.6264,3.463207,,43690,0.0,1014.232,0.0,3.861,1012.431,0,,0.09,77.39587,,,1.80078
2017-04-02T02:04:05Z,13.24659,-0.110527,0.0,73.33422,0,1156,2.8028,3.271172,,43690,0.0,1014.929,0.0,3.959,1013.128,0,,-0.009000001,75.30732,,,1.80078
2017-04-02T02:19:10Z,13.24705,-0.1432343,0.0,74.35407,0,1156,2.2736,3.099468,,43690,0.0,1014.929,0.0,3.783,1013.128,0,,-0.11,53.77882,,,1.80078
2017-04-02T02:34:09Z,13.25285,-0.3460159,0.0,75.64447,0,1156,2.1364,2.993282,,43690,0.0,1014.929,0.0,4.155,1013.128,0,,-0.176,73.57697,,,1.80078
2017-04-02T02:49:08Z,13.24733,-0.3120804,0.0,76.56037,0,1156,2.3716,2.907433,,43690,0.0,1014.929,0.0,3.018,1013.128,0,,-0.278,97.87787,,,1.80078
2017-04-02T03:04:11Z,13.23628,-0.2781601,0.0,76.79782,0,1156,2.2148,2.887096,,43690,0.0,1013.999,0.0,2.43,1012.198,0,,-0.278,101.5868,,,1.80078
2017-04-02T03:19:09Z,13.23076,-0.3460045,0.0,77.37448,0,1156,3.1752,2.864506,,43690,0.0,1013.999,0.0,2.999,1012.198,0,,-0.346,38.46234,,,1.80078
2017-04-02T03:34:12Z,13.24181,-0.4477654,0.0,77.44232,0,1156,4.0572,2.821579,,43690,0.0,1013.999,0.0,3.704,1012.198,0,,-0.312,66.2795,,,1.80078
2017-04-02T03:49:10Z,13.24181,-0.3799248,0.0,77.57801,0,1156,3.6848,2.778652,,43690,0.0,1013.999,0.0,4.292,1012.198,0,,-0.346,84.46302,,,1.80078
2017-04-02T04:04:12Z,13.24181,-0.5156098,0.0,77.91722,0,1156,3.234,2.735729,,43690,0.0,1014.325,0.0,5.037,1012.524,0,,-0.38,64.68995,,,1.80078
2017-04-02T04:19:15Z,13.24181,-0.4477654,0.0,77.20487,0,1156,4.704,2.735729,,43690,0.0,1014.325,0.0,4.469,1012.524,0,,-0.448,69.3141,,,1.80078
2017-04-02T04:34:13Z,13.24733,-0.54953,0.0,77.10311,0,1156,3.0968,2.695061,,43690,0.0,1014.325,0.0,3.861,1012.524,0,,-0.482,48.55359,,,1.80078
2017-04-02T04:49:17Z,13.23628,-0.6173744,0.0,77.10311,0,1156,2.4108,2.695061,,43690,0.0,1014.325,0.0,4.92,1012.524,0,,-0.583,73.16756,,,1.80078
2017-04-02T05:04:15Z,13.23076,-0.6512947,0.0,77.20487,0,1156,3.4692,2.67247,,43690,0.0,1013.429,0.0,4.116,1011.628,0,,-0.583,73.0953,,,1.80078
2017-04-02T05:19:13Z,13.24181,-0.7869797,0.0,77.30664,0,1156,2.4696,2.629543,,43690,0.0,1013.429,0.0,4.077,1011.628,0,,-0.6850001,55.2008,,,1.80078
2017-04-02T05:34:16Z,13.24181,-0.6512947,0.0,77.61193,0,1156,2.4304,2.566284,,43690,0.0,1013.429,0.0,3.665,1011.628,0,,-0.6850001,53.46675,,,1.80078
2017-04-02T05:49:15Z,13.25838,-0.7530594,0.0,77.91722,0,1156,2.9008,2.480434,,43690,0.0,1013.429,0.0,3.92,1011.628,0,,-0.7190001,83.59598,,,1.80078
2017-04-02T06:04:18Z,13.26391,-0.7530594,0.0,78.29035,0,1156,4.0964,2.437508,,43690,0.0,1013.266,0.0,3.9,1011.465,0,,-0.617,60.35481,,,1.80078
2017-04-02T06:19:19Z,13.27495,-0.8548241,0.0,79.10447,0,1156,3.9788,2.351654,,43690,0.0,1013.266,0.0,4.684,1011.465,0,,-0.753,53.97252,,,1.80078
2017-04-02T06:34:16Z,13.28048,-0.990509,0.0,80.46132,0,1156,3.1948,2.202545,,43690,0.0,1013.266,0.0,4.567,1011.465,0,,-0.8890001,66.95386,,,1.80078
2017-04-02T06:49:18Z,13.26943,-1.126194,0.0,81.98778,0,1156,2.6068,2.096359,,43690,0.0,1013.266,0.0,4.449,1011.465,0,,-1.092,65.72556,,,1.80078
2017-04-02T07:04:20Z,13.26391,-1.32972,0.0,82.63228,0,1156,3.0184,2.0331,,43690,0.0,1012.452,0.0,4.998,1010.651,0,,-1.194,53.44266,,,1.80078
2017-04-02T07:19:22Z,13.26391,-1.363644,0.0,82.42876,0,1156,4.116,1.990173,,43690,0.0,1012.452,0.0,5.606,1010.651,0,,-1.262,76.46709,,,1.80078
2017-04-02T07:34:18Z,13.25838,-1.363644,0.0,82.36091,0,1156,4.1748,1.94725,,43690,0.0,1012.452,0.0,5.096,1010.651,0,,-1.296,51.15468,,,1.80078
2017-04-02T07:49:20Z,13.26391,-1.431484,0.0,82.42876,0,1156,2.7048,1.904324,,43690,0.0,1012.452,0.0,5.429,1010.651,0,,-1.364,62.16112,,,1.80078
2017-04-02T08:04:22Z,13.26391,-1.431484,0.0,82.4966,0,1156,2.9792,1.841064,,43690,0.0,1011.964,0.0,3.469,1010.163,0,,-1.364,38.46234,,,1.80078
2017-04-02T08:19:24Z,13.26391,-1.465405,0.0,82.46268,0,1156,5.096,1.798138,,43690,0.0,1011.964,0.0,6.311,1010.163,0,,-1.398,47.71064,,,1.80078
2017-04-02T08:34:21Z,13.26391,-1.533249,0.0,82.59836,0,1156,3.4692,1.755215,,43690,0.0,1011.964,0.0,4.92,1010.163,0,,-1.465,48.55359,,,1.80078
2017-04-02T08:49:23Z,13.27495,-1.567169,0.0,82.63228,0,1156,5.3116,1.691956,,43690,0.0,1011.964,0.0,5.096,1010.163,0,,-1.465,47.97557,,,1.80078
2017-04-02T09:04:24Z,13.28048,-1.60109,0.0,82.9715,0,1156,5.1352,1.628696,,43690,0.0,1012.94,0.0,6.37,1011.14,0,,-1.567,67.96539,,,1.80078
2017-04-02T09:19:27Z,13.29153,-1.702713,0.0,84.09121,0,1156,2.5676,1.522511,,43690,0.0,1012.94,0.0,4.704,1011.14,0,,-1.601,69.14577,,,1.80078
2017-04-02T09:34:24Z,13.3026,-1.736759,0.0,84.90505,0,1156,3.3516,1.393734,,43690,0.0,1012.94,0.0,4.292,1011.14,0,,-1.635,54.16521,,,1.80078
2017-04-02T09:49:26Z,13.30829,-1.7365,0.0004826623,85.3466,0,1156,3.8416,1.287548,,43690,0.03378636,1012.94,2.413312e-06,5.41,1011.14,0,,-1.703,44.00201,,,1.80078
2017-04-02T10:04:24Z,13.31373,-1.735214,0.002895984,86.02792,0,1156,3.0772,1.201698,,43690,0.2027189,1012.787,1.447992e-05,4.43,1010.986,0,,-1.701,45.20774,,,1.80078
2017-04-02T10:19:26Z,13.30844,-1.768715,0.005309305,86.57164,0,1156,3.5084,1.138439,,43690,0.3716513,1012.787,2.654652e-05,4.782,1010.986,0,,-1.735,30.97379,,,1.80078
2017-04-02T10:34:29Z,13.28191,-1.802902,0.01303193,86.87634,0,1156,3.5868,1.224289,,43690,0.912235,1012.787,6.515964e-05,4.371,1010.986,0,,-1.702,50.53076,,,1.80078
2017-04-02T10:49:26Z,13.28082,-1.836815,0.0308905,86.94422,0,1156,3.4496,1.30788,,43690,2.162335,1012.787,0.0001544525,4.959,1010.986,0,,-1.633,48.07408,,,1.80078
2017-04-02T11:04:30Z,13.27526,-1.667164,0.03909578,86.57114,0,1156,4.1552,1.416325,,43690,2.736705,1012.061,0.0001954789,5.233,1010.26,0,,-1.634,39.59612,,,1.80078
2017-04-02T11:19:28Z,13.26944,-1.70277,0.04826636,86.56734,0,1156,4.3512,1.522511,,43690,3.378646,1012.061,0.0002413318,5.566,1010.26,0,,-1.533,48.04792,,,1.80078
2017-04-02T11:34:26Z,13.27497,-1.431259,0.06660764,86.60158,0,1156,2.7832,1.58577,,43690,4.662535,1012.061,0.0003330382,5.547,1010.26,0,,-1.397,40.7024,,,1.80078
2017-04-02T11:49:29Z,13.27496,-1.363625,0.08012207,86.56719,0,1156,2.0972,1.671619,,43690,5.608545,1012.061,0.0004006104,5.037,1010.26,0,,-1.262,51.41962,,,1.80078
2017-04-02T12:04:32Z,13.26391,-1.26186,0.1153567,86.39758,0,1156,3.9396,1.861397,,43690,8.07497,1012.534,0.0005767835,4.234,1010.733,0,,-1.058,39.85923,,,1.80078
2017-04-02T12:19:30Z,13.25839,-0.9565697,0.1698978,86.29582,0,1156,2.5676,2.118954,,43690,11.89284,1012.534,0.0008494887,5.272,1010.733,0,,-0.8890001,47.4939,,,1.80078
2017-04-02T12:34:28Z,13.25839,-0.5495148,0.2249007,85.65131,0,1156,3.0968,2.480434,,43690,15.74305,1012.534,0.001124503,5.174,1010.733,0,,-0.583,62.81141,,,1.80078
2017-04-02T12:49:32Z,13.23629,-0.5155907,0.2687994,84.3623,0,1156,3.822,2.844173,,43690,18.81596,1012.534,0.001343997,6.84,1010.733,0,,-0.38,37.59533,,,1.80078
2017-04-02T13:04:31Z,13.23076,-0.04069519,0.367198,82.83585,0,1156,4.998,3.185318,,43690,25.70386,1012.045,0.00183599,6.292,1010.244,0,,-0.041,41.76188,,,1.80078
2017-04-02T13:19:30Z,13.23032,0.2298965,0.3290661,80.90076,0,1156,3.9592,3.506134,,43690,23.03463,1012.045,0.001645331,4.508,1010.244,0,,0.399,54.66991,,,1.80078
2017-04-02T13:34:30Z,13.21204,0.3932572,0.4115646,79.09074,0,1156,4.116,3.826946,,43690,28.80952,1012.045,0.002057823,7.154,1010.244,0,,0.427,70.60238,,,1.80078
2017-04-02T13:49:35Z,13.19331,0.861805,0.4096213,76.77272,0,1156,4.9196,4.29913,,43690,28.67349,1012.045,0.002048107,7.036,1010.244,0,,0.9300001,80.4869,,,1.80078
2017-04-02T14:04:35Z,13.17658,1.098694,0.3343435,76.09362,0,1156,4.704,4.793907,,43690,23.40405,1012.198,0.001671718,4.43,1010.397,0,,1.167,51.20958,,,1.80078
2017-04-02T14:19:35Z,13.16553,1.064777,0.3126119,77.17873,0,1156,2.352,5.202831,,43690,21.88283,1012.198,0.001563059,5.37,1010.397,0,,1.065,86.40862,,,1.80078